Location: Scottsdale
(33.5090°N, 111.8980°W)
Time: 09:47:03
(UTC-07:00)

ISS - Visible Passes

Search period start: 24 June 2018 00:00
Search period end: 04 July 2018 00:00
Orbit: 402 x 407 km, 51.6° (Epoch: 25 June)

Date Brightness Start Highest point End Pass type
(mag) Time Alt. Az. Time Alt. Az. Time Alt. Az.
27 Jun -1.1 04:50:35 10° SSE 04:52:21 14° SE 04:54:08 10° E visible
29 Jun -2.7 04:41:16 10° SSW 04:44:21 39° SE 04:47:27 10° ENE visible
30 Jun -1.6 03:50:56 14° SSE 03:52:21 18° SE 03:54:42 10° E visible
01 Jul -3.7 04:33:40 13° SW 04:36:27 65° NW 04:39:44 10° NE visible
02 Jul -3.4 03:43:38 43° S 03:44:20 53° SE 03:47:32 10° NE visible
03 Jul -1.5 02:53:33 19° E 02:53:33 19° E 02:54:58 10° ENE visible
03 Jul -2.2 04:26:12 12° W 04:28:40 25° NW 04:31:28 10° NNE visible
